TimeGMT,TemperatureF,Dew PointF,Humidity,Sea Level PressureIn,VisibilityMPH,Wind Direction,Wind SpeedMPH,Gust SpeedMPH,PrecipitationIn,Events,Conditions,WindDirDegrees,DateUTC
12:56 AM,72.9,56.8,57,30.79,6.0,Calm,Calm,-,N/A,,Haze,0,2013-12-15 00:56:00
1:56 AM,70.9,54.9,57,30.78,6.0,North,6.9,-,N/A,,Haze,350,2013-12-15 01:56:00
2:56 AM,70.0,55.9,61,30.79,6.0,North,3.5,-,N/A,,Haze,350,2013-12-15 02:56:00
3:56 AM,68.9,54.9,61,30.79,6.0,Calm,Calm,-,N/A,,Haze,0,2013-12-15 03:56:00
4:56 AM,65.8,54.0,65,30.81,6.0,Calm,Calm,-,N/A,,Haze,0,2013-12-15 04:56:00
5:56 AM,63.9,54.9,72,30.82,7.0,Calm,Calm,-,N/A,,Partly Cloudy,0,2013-12-15 05:56:00
6:56 AM,63.0,55.9,78,30.84,7.0,Calm,Calm,-,N/A,,Partly Cloudy,0,2013-12-15 06:56:00
7:56 AM,61.9,54.9,78,30.83,7.0,Calm,Calm,-,N/A,,Clear,0,2013-12-15 07:56:00
8:56 AM,63.0,54.9,75,30.83,7.0,Calm,Calm,-,N/A,,Clear,0,2013-12-15 08:56:00
9:56 AM,63.0,55.9,78,30.82,7.0,Calm,Calm,-,N/A,,Partly Cloudy,0,2013-12-15 09:56:00
10:56 AM,66.9,55.9,68,30.79,7.0,SE,3.5,-,N/A,,Scattered Clouds,130,2013-12-15 10:56:00
11:56 AM,66.9,56.8,70,30.78,7.0,SSE,8.1,-,N/A,,Partly Cloudy,150,2013-12-15 11:56:00
12:56 PM,66.9,57.9,73,30.76,7.0,South,10.4,-,N/A,,Scattered Clouds,190,2013-12-15 12:56:00
1:56 PM,68.0,57.9,70,30.72,7.0,SSW,9.2,-,N/A,,Clear,200,2013-12-15 13:56:00
2:56 PM,68.0,59.9,75,30.71,7.0,SSW,13.8,-,N/A,,Scattered Clouds,200,2013-12-15 14:56:00
3:56 PM,68.9,61.0,76,30.70,7.0,SSW,12.7,-,N/A,,Scattered Clouds,200,2013-12-15 15:56:00
4:25 PM,69.8,62.6,78,29.79,6.0,SSW,15.0,-,N/A,,Haze,210,2013-12-15 16:25:00
4:56 PM,70.0,63.0,78,30.70,6.0,SSW,16.1,-,N/A,,Haze,200,2013-12-15 16:56:00
5:07 PM,69.8,62.6,78,29.79,6.0,SSW,16.1,-,N/A,,Haze,210,2013-12-15 17:07:00
5:56 PM,69.8,66.2,88,29.79,2.0,SSW,19.6,-,N/A,Rain,Light Rain,200,2013-12-15 17:56:00
6:03 PM,69.8,66.2,88,29.79,1.8,SSW,18.4,-,0.00,Rain,Light Rain,200,2013-12-15 18:03:00
6:13 PM,69.8,66.2,88,29.77,1.5,South,20.7,26.5,0.00,Rain,Light Rain,190,2013-12-15 18:13:00
6:19 PM,69.8,66.2,88,29.76,2.0,South,20.7,-,0.00,Rain,Light Rain,190,2013-12-15 18:19:00
6:33 PM,69.8,68.0,94,29.76,3.0,South,21.9,31.1,0.00,Rain,Light Rain,190,2013-12-15 18:33:00
6:56 PM,70.9,68.0,91,30.68,4.0,South,20.7,-,0.00,Rain,Light Rain,190,2013-12-15 18:56:00
7:09 PM,71.6,68.0,88,29.79,1.8,SSW,18.4,26.5,0.00,Rain,Light Rain,200,2013-12-15 19:09:00
7:15 PM,69.8,68.0,94,29.78,1.2,South,16.1,26.5,0.00,Rain,Light Rain,190,2013-12-15 19:15:00
7:23 PM,71.6,69.8,94,29.77,1.5,South,18.4,24.2,0.00,Rain,Light Rain,180,2013-12-15 19:23:00
7:42 PM,69.8,69.8,100,29.78,1.0,South,17.3,-,0.00,Rain,Light Rain,180,2013-12-15 19:42:00
7:56 PM,70.9,68.9,93,30.70,1.0,South,17.3,-,0.00,Rain,Light Rain,190,2013-12-15 19:56:00
7:59 PM,69.8,69.8,100,29.78,1.2,South,21.9,28.8,0.00,Rain,Light Rain,190,2013-12-15 19:59:00
8:06 PM,68.0,66.2,94,29.78,0.8,SSW,20.7,29.9,0.00,Rain,Rain,210,2013-12-15 20:06:00
8:14 PM,68.0,66.2,94,29.79,0.5,SSW,24.2,29.9,0.01,Fog-Rain,Rain,210,2013-12-15 20:14:00
8:27 PM,66.2,64.4,94,29.78,1.0,SSW,10.4,24.2,0.08,Rain,Light Rain,210,2013-12-15 20:27:00
8:29 PM,66.2,64.4,94,29.78,1.5,SSW,11.5,-,0.08,Rain,Light Rain,210,2013-12-15 20:29:00
8:31 PM,66.2,64.4,94,29.78,2.0,SSW,8.1,-,0.08,Rain,Light Rain,200,2013-12-15 20:31:00
8:48 PM,66.2,66.2,100,29.78,1.2,South,15.0,-,0.12,Rain,Light Rain,170,2013-12-15 20:48:00
8:56 PM,66.2,66.2,100,29.77,1.2,South,15.0,-,N/A,Rain,Light Rain,170,2013-12-15 20:56:00
9:31 PM,69.8,69.8,100,29.78,1.0,South,20.7,29.9,0.10,Rain,Light Rain,190,2013-12-15 21:31:00
9:56 PM,70.9,70.9,100,30.68,1.0,SSW,21.9,29.9,0.17,Rain,Light Rain,200,2013-12-15 21:56:00
10:10 PM,71.6,71.6,100,29.77,0.8,SSW,26.5,34.5,0.03,Rain,Light Rain,210,2013-12-15 22:10:00
10:38 PM,69.8,69.8,100,29.75,1.0,SSW,19.6,27.6,0.12,Rain,Rain,210,2013-12-15 22:38:00
10:56 PM,70.0,68.0,93,30.60,1.0,South,32.2,36.8,0.17,Rain,Rain,180,2013-12-15 22:56:00
11:03 PM,69.8,68.0,94,29.69,0.8,South,20.7,36.8,0.04,Rain,Rain,170,2013-12-15 23:03:00
11:09 PM,69.8,66.2,88,29.77,1.0,West,10.4,29.9,0.05,Rain,Light Rain,270,2013-12-15 23:09:00
11:14 PM,68.0,66.2,94,29.73,1.5,South,11.5,18.4,0.05,Rain,Light Rain,190,2013-12-15 23:14:00
11:22 PM,68.0,66.2,94,29.74,2.0,SSW,12.7,-,0.06,Rain,Light Rain,210,2013-12-15 23:22:00
11:40 PM,68.0,64.4,88,29.73,3.0,SSW,10.4,-,0.07,Rain,Light Rain,200,2013-12-15 23:40:00
11:56 PM,68.0,64.4,88,29.72,2.0,SSW,13.8,-,N/A,Rain,Light Rain,210,2013-12-15 23:56:00